STARLINK-1361, 45567

Orbit data source: Space-Track

STARLINK-1361, 45567 is a payload satellite owned by SpaceX/Seattle (US) in LEO that was launched on Wed, 22 Apr 2020 UTC via an FALCON 9 launch vehicle from the Air Force Eastern Test Range (AFETR). Payload-class satellites include a variety of spacecraft equipped with specific instruments for various scientific and technological missions. These include communications satellites like Starlink; space stations such as the ISS; scientific satellites like the Hubble; Earth observation satellites from companies like Planet Labs, Umbra, and HawkEye 360; GPS; miniature CubeSats for education and research; and military/defense satellites.

Loading next visibility...
Identifier
45567, 2020-025AN
Orbit
LEO
Country
Flag of USUS
Related business
Manufacturer
SpaceX/Seattle
Mission
Operational Commercial Communications
Bus & Motor
STARLINK, Unknown motor
Mass
260 kg wet, ~248 kg dry
Launch date (UTC)
2020-04-22 (5 years ago)
Launch vehicle
FALCON 9
Launch site
Air Force Eastern Test Range (AFETR)
Object type
Payload
Rocket body
Debris
Shape & HBR
Box + 1 Pan, 4.4 m
Radar Cross Section
13.562 m², Large (>1 m²)

Expand to show TLE details & history
Last TLE update: 7 hours ago

TLE from 7 hours ago
0 STARLINK-1361
1 45567U 20025AN  25260.92471617 -.00001149  00000-0 -58278-4 0  9999
2 45567  53.0539 142.1956 0001425 104.4177 255.6970 15.06398540299339
Epoch: 2025-09-17T22:11Z
TLE epoch observation values (Epoch: 2025-09-17T22:11:35.477Z)
Latitude
-0.00002°
Longitude
172.20409°
Altitude
548.339 km
Speed
7.589 km/s
True Right ascension
09h 28m 46s
True Declination
0° 00' 00"
Sunlit
Object was in daylight at epoch
Visualization orbit readout
Latitude
Unknown
Longitude
Unknown
Altitude
Unknown
Speed
Unknown
Apparent Right ascension
Unknown
Apparent Declination
Unknown
Sunlit
N/A
Visualization observer readout
Local Sidereal Time
22:02:02
Azimuth
Unknown
Elevation
Unknown
Doppler factor
Unknown
Orbital elements
Apogee altitude
548.474 km
Perigee altitude
546.5 km
Semi-major axis
6,925.624 km
Eccentricity
0.00014
Inclination
53.0539°
RAAN
142.1956°
Arg. of periapsis
104.4177°
True anomaly
255.68118°
Mean anomaly
255.697°
Eccentric anomaly
255.68909°
Mean motion
3.76578 °/min
Orbital period
95.6 mins
BSTAR
-0.000058278
Loading maneuver chart data...
Computing Atmospheric mass density...
Loading historical data...
Loading historical data...
Loading historical data...
Loading historical data...
Loading historical data...
Loading historical data...
Loading historical data...

Documentation

Showing up to 5 results
|